SWA3987 KMAF-KHOU

Flight info

Callsign SWA3987
Flight time 1h 1m
Altitude 37000
Route SJT DILLO KIDDZ5
Aircraft B737/M-SDE2E3FGHIRWXY/LB1

Departure

Time 2026-04-28 23:47
Airport Midland International Air and Space Port (KMAF)

Arrival

Time 2026-04-29 00:48
Airport William P. Hobby Airport (KHOU)
Time Latitude Longitude Altitude Speed Heading
2026-04-28 23:30 31.93701 -102.20712 2861 ft 0 kts 268°
2026-04-28 23:38 31.93701 -102.20706 2860 ft 2 kts 268°
2026-04-28 23:39 31.93701 -102.20688 2860 ft 2 kts 276°
2026-04-28 23:39 31.93698 -102.20671 2860 ft 2 kts 290°
2026-04-28 23:39 31.93691 -102.20654 2861 ft 2 kts 304°
2026-04-28 23:39 31.93682 -102.20641 2860 ft 2 kts 317°
2026-04-28 23:40 31.93670 -102.20630 2860 ft 2 kts 330°
2026-04-28 23:40 31.93656 -102.20623 2860 ft 2 kts 344°
2026-04-28 23:40 31.93643 -102.20619 2860 ft 0 kts 355°
2026-04-28 23:40 31.93636 -102.20619 2860 ft 1 kts 358°
2026-04-28 23:41 31.93635 -102.20619 2860 ft 0 kts 357°
2026-04-28 23:42 31.93636 -102.20619 2860 ft 0 kts 357°
2026-04-28 23:43 31.93644 -102.20619 2860 ft 2 kts 356°
2026-04-28 23:43 31.93675 -102.20608 2860 ft 6 kts 41°
2026-04-28 23:43 31.93707 -102.20546 2860 ft 11 kts 31°
2026-04-28 23:43 31.93795 -102.20522 2860 ft 14 kts 25°
2026-04-28 23:44 31.93832 -102.20405 2860 ft 18 kts 88°
2026-04-28 23:44 31.93832 -102.20237 2859 ft 21 kts 90°
2026-04-28 23:44 31.93831 -102.20058 2858 ft 22 kts 90°
2026-04-28 23:44 31.93830 -102.19874 2858 ft 22 kts 90°
2026-04-28 23:45 31.93829 -102.19683 2858 ft 23 kts 90°
2026-04-28 23:45 31.93859 -102.19499 2858 ft 23 kts 56°
2026-04-28 23:45 31.93956 -102.19434 2859 ft 0 kts 338°
2026-04-28 23:45 31.93959 -102.19437 2858 ft 1 kts 310°
2026-04-28 23:46 31.93964 -102.19453 2858 ft 0 kts 290°
2026-04-28 23:46 31.93967 -102.19465 2859 ft 16 kts 290°
2026-04-28 23:46 31.94110 -102.19898 2860 ft 94 kts 293°
2026-04-28 23:46 31.94465 -102.20866 2870 ft 156 kts 288°
2026-04-28 23:47 31.94919 -102.22104 3368 ft 174 kts 295°
2026-04-28 23:47 31.95513 -102.23377 4207 ft 177 kts 294°
2026-04-28 23:47 31.96001 -102.24632 5155 ft 169 kts 288°
2026-04-28 23:47 31.96091 -102.25920 6063 ft 158 kts 252°
2026-04-28 23:48 31.95411 -102.26878 6840 ft 162 kts 211°
2026-04-28 23:48 31.94274 -102.27087 7530 ft 175 kts 178°
2026-04-28 23:48 31.93135 -102.26510 8178 ft 189 kts 147°
2026-04-28 23:48 31.92192 -102.25428 8869 ft 194 kts 134°
2026-04-28 23:49 31.91544 -102.23940 9394 ft 215 kts 109°
2026-04-28 23:49 31.91151 -102.22186 9958 ft 230 kts 109°
2026-04-28 23:49 31.90681 -102.20332 10551 ft 243 kts 112°
2026-04-28 23:49 31.90106 -102.18373 11163 ft 258 kts 114°
2026-04-28 23:50 31.89489 -102.16344 11781 ft 272 kts 115°
2026-04-28 23:50 31.88838 -102.14181 12386 ft 289 kts 114°
2026-04-28 23:50 31.88162 -102.11906 13018 ft 304 kts 114°
2026-04-28 23:50 31.87441 -102.09480 13758 ft 314 kts 114°
2026-04-28 23:51 31.86716 -102.07032 14663 ft 319 kts 113°
2026-04-28 23:51 31.85983 -102.04556 15472 ft 328 kts 113°
2026-04-28 23:51 31.85207 -102.01953 16091 ft 345 kts 113°
2026-04-28 23:51 31.84394 -101.99230 16686 ft 362 kts 112°
2026-04-28 23:52 31.83536 -101.96361 17281 ft 378 kts 112°
2026-04-28 23:52 31.82643 -101.93373 17860 ft 395 kts 112°
2026-04-28 23:52 31.81706 -101.90242 18417 ft 412 kts 112°
2026-04-28 23:52 31.80746 -101.87032 18958 ft 427 kts 112°
2026-04-28 23:53 31.79734 -101.83652 19463 ft 443 kts 111°
2026-04-28 23:53 31.78687 -101.80161 20020 ft 457 kts 111°
2026-04-28 23:53 31.77636 -101.76655 20826 ft 464 kts 112°
2026-04-28 23:53 31.76554 -101.73047 21622 ft 470 kts 111°
2026-04-28 23:54 31.75459 -101.69402 22379 ft 476 kts 112°
2026-04-28 23:54 31.74351 -101.65716 23168 ft 481 kts 112°
2026-04-28 23:54 31.73237 -101.62017 23785 ft 490 kts 112°
2026-04-28 23:54 31.72093 -101.58222 24460 ft 496 kts 112°
2026-04-28 23:55 31.70936 -101.54391 25111 ft 501 kts 112°
2026-04-28 23:55 31.69748 -101.50462 25660 ft 510 kts 111°
2026-04-28 23:55 31.68552 -101.46516 26196 ft 517 kts 112°
2026-04-28 23:55 31.67351 -101.42549 26870 ft 521 kts 112°
2026-04-28 23:56 31.66122 -101.38496 27341 ft 529 kts 112°
2026-04-28 23:56 31.64896 -101.34456 27974 ft 533 kts 112°
2026-04-28 23:56 31.63651 -101.30358 28652 ft 534 kts 112°
2026-04-28 23:56 31.62395 -101.26226 29395 ft 534 kts 112°
2026-04-28 23:57 31.61136 -101.22091 30132 ft 534 kts 112°
2026-04-28 23:57 31.59893 -101.18014 30792 ft 534 kts 113°
2026-04-28 23:57 31.58627 -101.13868 31397 ft 536 kts 113°
2026-04-28 23:57 31.57382 -101.09804 31925 ft 539 kts 113°
2026-04-28 23:58 31.56105 -101.05638 32503 ft 540 kts 113°
2026-04-28 23:58 31.54824 -101.01469 33070 ft 541 kts 114°
2026-04-28 23:58 31.53555 -100.97342 33710 ft 542 kts 114°
2026-04-28 23:58 31.52292 -100.93237 34400 ft 540 kts 114°
2026-04-28 23:59 31.51002 -100.89047 35099 ft 539 kts 114°
2026-04-28 23:59 31.49735 -100.84934 35883 ft 535 kts 113°
2026-04-28 23:59 31.48478 -100.80859 36543 ft 534 kts 114°
2026-04-28 23:59 31.47221 -100.76793 36957 ft 536 kts 114°
2026-04-29 00:00 31.44675 -100.68587 36973 ft 534 kts 114°
2026-04-29 00:00 31.42125 -100.60385 36958 ft 536 kts 113°
2026-04-29 00:01 31.39612 -100.52314 36949 ft 534 kts 114°
2026-04-29 00:01 31.37059 -100.44145 36945 ft 534 kts 114°
2026-04-29 00:02 31.34373 -100.36008 36948 ft 536 kts 115°
2026-04-29 00:02 31.31636 -100.28030 36959 ft 531 kts 116°
2026-04-29 00:03 31.28828 -100.19910 36964 ft 533 kts 117°
2026-04-29 00:03 31.26046 -100.11848 36972 ft 534 kts 116°
2026-04-29 00:04 31.23272 -100.03766 36978 ft 532 kts 116°
2026-04-29 00:04 31.20514 -99.95727 36975 ft 534 kts 116°
2026-04-29 00:05 31.17742 -99.87682 36974 ft 533 kts 116°
2026-04-29 00:05 31.14957 -99.79611 36976 ft 534 kts 115°
2026-04-29 00:06 31.12194 -99.71608 36973 ft 533 kts 116°
2026-04-29 00:06 31.09423 -99.63599 36970 ft 533 kts 115°
2026-04-29 00:07 31.06621 -99.55531 36971 ft 532 kts 115°
2026-04-29 00:07 31.03847 -99.47570 36963 ft 534 kts 115°
2026-04-29 00:08 31.01045 -99.39535 36955 ft 533 kts 115°
2026-04-29 00:08 30.98267 -99.31587 36948 ft 533 kts 116°
2026-04-29 00:09 30.95456 -99.23571 36945 ft 534 kts 115°
2026-04-29 00:09 30.92630 -99.15540 36941 ft 532 kts 115°
2026-04-29 00:10 30.89820 -99.07555 36937 ft 533 kts 115°
2026-04-29 00:10 30.87030 -98.99647 36922 ft 534 kts 114°
2026-04-29 00:11 30.84243 -98.91762 36916 ft 532 kts 115°
2026-04-29 00:12 30.80265 -98.79698 36905 ft 533 kts 107°
2026-04-29 00:12 30.78549 -98.71320 36897 ft 533 kts 100°
2026-04-29 00:13 30.77371 -98.62837 36896 ft 532 kts 97°
2026-04-29 00:13 30.76353 -98.54282 36893 ft 531 kts 96°
2026-04-29 00:14 30.75332 -98.45784 36892 ft 531 kts 96°
2026-04-29 00:14 30.74267 -98.37282 36902 ft 532 kts 96°
2026-04-29 00:15 30.73182 -98.28889 36903 ft 531 kts 98°
2026-04-29 00:15 30.72060 -98.20362 36906 ft 530 kts 98°
2026-04-29 00:16 30.70942 -98.11920 36908 ft 529 kts 97°
2026-04-29 00:16 30.69817 -98.03504 36902 ft 530 kts 97°
2026-04-29 00:17 30.68690 -97.95129 36894 ft 528 kts 97°
2026-04-29 00:17 30.67559 -97.86786 36895 ft 529 kts 97°
2026-04-29 00:18 30.66418 -97.78403 36897 ft 527 kts 97°
2026-04-29 00:18 30.65283 -97.70075 36586 ft 522 kts 97°
2026-04-29 00:18 30.64721 -97.65978 36136 ft 516 kts 97°
2026-04-29 00:19 30.64161 -97.61910 35574 ft 515 kts 97°
2026-04-29 00:19 30.63602 -97.57864 34910 ft 516 kts 97°
2026-04-29 00:19 30.63040 -97.53802 34213 ft 516 kts 97°
2026-04-29 00:19 30.62475 -97.49721 33514 ft 515 kts 97°
2026-04-29 00:20 30.61912 -97.45660 32898 ft 516 kts 97°
2026-04-29 00:20 30.61345 -97.41583 32431 ft 514 kts 97°
2026-04-29 00:20 30.60783 -97.37556 31897 ft 512 kts 98°
2026-04-29 00:20 30.60216 -97.33501 31348 ft 508 kts 98°
2026-04-29 00:21 30.59658 -97.29514 30796 ft 504 kts 99°
2026-04-29 00:21 30.59103 -97.25564 30248 ft 500 kts 98°
2026-04-29 00:21 30.58554 -97.21658 29708 ft 496 kts 99°
2026-04-29 00:21 30.58000 -97.17735 29161 ft 491 kts 98°
2026-04-29 00:22 30.57445 -97.13811 28617 ft 487 kts 98°
2026-04-29 00:22 30.56896 -97.09952 28069 ft 483 kts 99°
2026-04-29 00:22 30.56302 -97.06182 27537 ft 480 kts 102°
2026-04-29 00:22 30.55505 -97.02394 26987 ft 475 kts 105°
2026-04-29 00:23 30.54596 -96.98780 26450 ft 471 kts 108°
2026-04-29 00:23 30.53616 -96.95177 25912 ft 467 kts 108°
2026-04-29 00:23 30.52614 -96.91594 25373 ft 463 kts 109°
2026-04-29 00:23 30.51625 -96.88073 24841 ft 459 kts 109°
2026-04-29 00:24 30.50649 -96.84582 24313 ft 455 kts 109°
2026-04-29 00:24 30.49688 -96.81117 23780 ft 451 kts 109°
2026-04-29 00:24 30.48744 -96.77692 23251 ft 446 kts 109°
2026-04-29 00:24 30.47795 -96.74268 22724 ft 442 kts 109°
2026-04-29 00:25 30.46862 -96.70917 22210 ft 437 kts 109°
2026-04-29 00:25 30.45927 -96.67557 21695 ft 433 kts 109°
2026-04-29 00:25 30.45020 -96.64296 21182 ft 429 kts 109°
2026-04-29 00:25 30.44099 -96.60986 20665 ft 425 kts 109°
2026-04-29 00:26 30.43133 -96.57780 20158 ft 420 kts 112°
2026-04-29 00:26 30.41962 -96.54697 19644 ft 414 kts 119°
2026-04-29 00:26 30.40543 -96.51838 19121 ft 409 kts 125°
2026-04-29 00:26 30.38984 -96.49113 18640 ft 404 kts 128°
2026-04-29 00:27 30.37362 -96.46444 18114 ft 400 kts 129°
2026-04-29 00:27 30.35751 -96.43832 17622 ft 396 kts 129°
2026-04-29 00:27 30.34160 -96.41246 17146 ft 391 kts 128°
2026-04-29 00:27 30.32618 -96.38719 16661 ft 387 kts 128°
2026-04-29 00:28 30.31077 -96.36173 16171 ft 382 kts 128°
2026-04-29 00:28 30.29591 -96.33701 15683 ft 374 kts 128°
2026-04-29 00:28 30.28111 -96.31225 15208 ft 366 kts 128°
2026-04-29 00:28 30.26671 -96.28810 14747 ft 359 kts 128°
2026-04-29 00:29 30.25250 -96.26427 14282 ft 351 kts 128°
2026-04-29 00:29 30.23884 -96.24159 13837 ft 344 kts 130°
2026-04-29 00:29 30.22356 -96.22059 13387 ft 333 kts 140°
2026-04-29 00:29 30.20523 -96.20506 12958 ft 320 kts 155°
2026-04-29 00:30 30.18535 -96.19380 12530 ft 314 kts 160°
2026-04-29 00:30 30.17202 -96.18705 12247 ft 320 kts 161°
2026-04-29 00:30 30.14462 -96.17329 11962 ft 317 kts 160°
2026-04-29 00:30 30.12413 -96.16270 11961 ft 320 kts 159°
2026-04-29 00:31 30.10366 -96.15191 11962 ft 321 kts 159°
2026-04-29 00:31 30.08330 -96.14106 11956 ft 320 kts 159°
2026-04-29 00:31 30.06313 -96.13028 11955 ft 321 kts 159°
2026-04-29 00:31 30.04288 -96.11916 11963 ft 321 kts 158°
2026-04-29 00:32 30.02258 -96.10751 11962 ft 320 kts 157°
2026-04-29 00:32 30.00277 -96.09599 11967 ft 319 kts 157°
2026-04-29 00:32 29.98284 -96.08442 11968 ft 319 kts 157°
2026-04-29 00:32 29.96281 -96.07287 11954 ft 320 kts 157°
2026-04-29 00:33 29.94255 -96.06122 11962 ft 320 kts 157°
2026-04-29 00:33 29.92253 -96.04974 11963 ft 320 kts 157°
2026-04-29 00:33 29.90247 -96.03826 11959 ft 320 kts 157°
2026-04-29 00:33 29.88226 -96.02672 11940 ft 317 kts 157°
2026-04-29 00:34 29.86279 -96.01557 11704 ft 310 kts 157°
2026-04-29 00:34 29.84302 -96.00430 11302 ft 319 kts 157°
2026-04-29 00:34 29.82328 -95.99295 11003 ft 315 kts 156°
2026-04-29 00:34 29.80428 -95.98100 10978 ft 303 kts 154°
2026-04-29 00:35 29.78631 -95.96895 10781 ft 296 kts 153°
2026-04-29 00:35 29.76860 -95.95696 10399 ft 295 kts 153°
2026-04-29 00:35 29.75099 -95.94513 10154 ft 288 kts 153°
2026-04-29 00:35 29.73368 -95.93363 10025 ft 288 kts 154°
2026-04-29 00:36 29.71616 -95.92217 9977 ft 285 kts 154°
2026-04-29 00:36 29.69867 -95.91084 9980 ft 286 kts 155°
2026-04-29 00:36 29.68134 -95.89965 9913 ft 288 kts 154°
2026-04-29 00:36 29.66441 -95.88644 9617 ft 293 kts 142°
2026-04-29 00:37 29.65236 -95.86737 9241 ft 300 kts 114°
2026-04-29 00:37 29.64848 -95.84406 8909 ft 301 kts 96°
2026-04-29 00:37 29.64788 -95.81992 8541 ft 300 kts 92°
2026-04-29 00:37 29.64769 -95.79580 8186 ft 297 kts 93°
2026-04-29 00:38 29.64713 -95.77219 7836 ft 295 kts 95°
2026-04-29 00:38 29.64663 -95.74846 7526 ft 292 kts 89°
2026-04-29 00:38 29.65185 -95.72603 7181 ft 295 kts 65°
2026-04-29 00:38 29.66307 -95.70652 6981 ft 286 kts 54°
2026-04-29 00:39 29.67504 -95.68901 6857 ft 273 kts 53°
2026-04-29 00:39 29.68634 -95.67196 6700 ft 263 kts 56°
2026-04-29 00:39 29.69696 -95.65485 6422 ft 258 kts 57°
2026-04-29 00:39 29.70706 -95.63795 6035 ft 258 kts 58°
2026-04-29 00:40 29.71724 -95.62073 5678 ft 257 kts 59°
2026-04-29 00:40 29.72721 -95.60390 5368 ft 254 kts 58°
2026-04-29 00:40 29.73718 -95.58709 5030 ft 251 kts 59°
2026-04-29 00:40 29.74711 -95.57028 4651 ft 252 kts 58°
2026-04-29 00:41 29.75680 -95.55392 4496 ft 242 kts 59°
2026-04-29 00:41 29.76302 -95.54344 4388 ft 229 kts 59°
2026-04-29 00:41 29.77453 -95.52403 4069 ft 211 kts 60°
2026-04-29 00:41 29.78279 -95.51006 3605 ft 211 kts 60°
2026-04-29 00:42 29.79075 -95.49650 3434 ft 206 kts 60°
2026-04-29 00:42 29.79770 -95.48164 3420 ft 205 kts 77°
2026-04-29 00:42 29.79803 -95.46598 3345 ft 192 kts 113°
2026-04-29 00:42 29.79186 -95.45306 3179 ft 178 kts 136°
2026-04-29 00:43 29.78377 -95.44319 3075 ft 159 kts 140°
2026-04-29 00:43 29.77622 -95.43408 2967 ft 160 kts 140°
2026-04-29 00:43 29.76857 -95.42487 2851 ft 155 kts 141°
2026-04-29 00:43 29.76093 -95.41580 2739 ft 156 kts 140°
2026-04-29 00:44 29.75329 -95.40665 2622 ft 157 kts 140°
2026-04-29 00:44 29.74590 -95.39784 2488 ft 153 kts 140°
2026-04-29 00:44 29.73835 -95.38898 2339 ft 153 kts 141°
2026-04-29 00:44 29.73091 -95.38019 2226 ft 152 kts 140°
2026-04-29 00:45 29.72347 -95.37133 2094 ft 153 kts 141°
2026-04-29 00:45 29.71607 -95.36259 1876 ft 150 kts 140°
2026-04-29 00:45 29.70884 -95.35404 1672 ft 144 kts 139°
2026-04-29 00:45 29.70222 -95.34598 1495 ft 131 kts 140°
2026-04-29 00:46 29.69595 -95.33868 1339 ft 129 kts 141°
2026-04-29 00:46 29.68960 -95.33120 1166 ft 128 kts 140°
2026-04-29 00:46 29.68333 -95.32375 1002 ft 129 kts 139°
2026-04-29 00:46 29.67715 -95.31632 792 ft 130 kts 138°
2026-04-29 00:47 29.67101 -95.30889 665 ft 129 kts 139°
2026-04-29 00:47 29.66451 -95.30151 477 ft 130 kts 139°
2026-04-29 00:47 29.65830 -95.29404 360 ft 128 kts 138°
2026-04-29 00:47 29.65210 -95.28669 191 ft 129 kts 137°
2026-04-29 00:48 29.64600 -95.27956 51 ft 119 kts 139°
2026-04-29 00:48 29.64096 -95.27382 49 ft 81 kts 136°
2026-04-29 00:48 29.63916 -95.27125 49 ft 13 kts 94°
2026-04-29 00:48 29.63920 -95.27021 48 ft 13 kts 83°
2026-04-29 00:49 29.63928 -95.26917 48 ft 12 kts 82°
2026-04-29 00:49 29.63994 -95.26865 48 ft 12 kts
2026-04-29 00:49 29.64084 -95.26864 47 ft 12 kts
2026-04-29 00:49 29.64165 -95.26894 47 ft 12 kts 318°
2026-04-29 00:50 29.64225 -95.26968 47 ft 12 kts 309°
2026-04-29 00:50 29.64280 -95.27045 47 ft 12 kts 309°
2026-04-29 00:50 29.64334 -95.27119 47 ft 12 kts 310°
2026-04-29 00:50 29.64380 -95.27197 48 ft 11 kts 298°
2026-04-29 00:51 29.64421 -95.27274 48 ft 11 kts 305°
2026-04-29 00:51 29.64472 -95.27341 48 ft 11 kts 315°
2026-04-29 00:51 29.64535 -95.27413 48 ft 14 kts 315°
2026-04-29 00:51 29.64612 -95.27496 48 ft 16 kts 329°
2026-04-29 00:52 29.64732 -95.27515 48 ft 18 kts 359°
2026-04-29 00:52 29.64872 -95.27518 48 ft 21 kts 358°
2026-04-29 00:52 29.65006 -95.27525 49 ft 16 kts 359°
2026-04-29 00:52 29.65109 -95.27525 49 ft 14 kts 359°
2026-04-29 00:53 29.65175 -95.27511 49 ft 6 kts 19°
2026-04-29 00:53 29.65198 -95.27502 49 ft 2 kts 17°
2026-04-29 00:53 29.65207 -95.27499 49 ft 0 kts 17°